Time,TemperatureF,DewpointF,PressureIn,WindDirection,WindDirectionDegrees,WindSpeedMPH,WindSpeedGustMPH,Humidity,HourlyPrecipIn,Conditions,Clouds,dailyrainin,SoftwareType,DateUTC
2013-11-28 00:01:00,24.3,9.6,30.11,SW,225,1.6,3.8,53,0.00,,,0.00,pywws,2013-11-28 05:01:00,
2013-11-28 00:03:00,24.3,9.6,30.11,NW,315,5.4,7.6,53,0.00,,,0.00,pywws,2013-11-28 05:03:00,
2013-11-28 00:05:00,24.3,9.6,30.11,South,180,2.2,4.5,53,0.00,,,0.00,pywws,2013-11-28 05:05:00,
2013-11-28 00:06:00,24.3,9.6,30.11,South,180,2.2,4.5,53,0.00,,,0.00,pywws,2013-11-28 05:06:00,
2013-11-28 00:09:00,24.3,9.6,30.12,NW,315,1.6,3.8,53,0.00,,,0.00,pywws,2013-11-28 05:09:00,
2013-11-28 00:15:00,24.3,9.6,30.12,SW,225,4.5,6.0,53,0.00,,,0.00,pywws,2013-11-28 05:15:00,
2013-11-28 00:21:00,24.1,9.5,30.12,West,270,5.4,11.4,53,0.00,,,0.00,pywws,2013-11-28 05:21:00,
2013-11-28 00:26:00,24.1,9.5,30.12,West,270,0.7,2.2,53,0.00,,,0.00,pywws,2013-11-28 05:26:00,
2013-11-28 00:31:00,24.1,9.5,30.12,NW,315,3.8,6.0,53,0.00,,,0.00,pywws,2013-11-28 05:31:00,
2013-11-28 00:36:00,24.1,9.5,30.12,North,0,3.1,6.0,53,0.00,,,0.00,pywws,2013-11-28 05:36:00,
2013-11-28 00:41:00,24.1,9.5,30.13,West,270,0.7,3.1,53,0.00,,,0.00,pywws,2013-11-28 05:41:00,
2013-11-28 00:46:00,24.1,9.9,30.13,NW,315,5.4,8.3,54,0.00,,,0.00,pywws,2013-11-28 05:46:00,
2013-11-28 00:52:00,24.1,9.5,30.13,West,270,2.2,4.5,53,0.00,,,0.00,pywws,2013-11-28 05:52:00,
2013-11-28 00:57:00,24.1,9.5,30.13,NW,315,1.6,3.8,53,0.00,,,0.00,pywws,2013-11-28 05:57:00,
2013-11-28 01:03:00,24.1,9.5,30.13,NW,315,4.5,7.6,53,0.00,,,0.00,pywws,2013-11-28 06:03:00,
2013-11-28 01:09:00,23.9,9.3,30.14,North,0,6.0,9.2,53,0.00,,,0.00,pywws,2013-11-28 06:09:00,
2013-11-28 01:14:00,23.9,9.3,30.14,West,270,3.1,4.5,53,0.00,,,0.00,pywws,2013-11-28 06:14:00,
2013-11-28 01:20:00,23.9,9.3,30.14,NW,315,2.2,4.5,53,0.00,,,0.00,pywws,2013-11-28 06:20:00,
2013-11-28 01:25:00,23.9,8.9,30.14,NW,315,1.6,4.5,52,0.00,,,0.00,pywws,2013-11-28 06:25:00,
2013-11-28 01:31:00,23.9,9.3,30.14,NW,315,2.2,5.4,53,0.00,,,0.00,pywws,2013-11-28 06:31:00,
2013-11-28 01:36:00,23.7,9.1,30.14,North,0,0.7,3.1,53,0.00,,,0.00,pywws,2013-11-28 06:36:00,
2013-11-28 01:41:00,23.7,9.1,30.14,West,270,1.6,3.8,53,0.00,,,0.00,pywws,2013-11-28 06:41:00,
2013-11-28 01:46:00,23.7,9.1,30.14,NE,45,3.1,3.8,53,0.00,,,0.00,pywws,2013-11-28 06:46:00,
2013-11-28 01:51:00,23.7,9.1,30.14,West,270,4.5,6.9,53,0.00,,,0.00,pywws,2013-11-28 06:51:00,
2013-11-28 01:56:00,23.7,9.1,30.15,West,270,0.7,2.2,53,0.00,,,0.00,pywws,2013-11-28 06:56:00,
2013-11-28 02:01:00,23.7,9.1,30.15,North,0,3.1,5.4,53,0.00,,,0.00,pywws,2013-11-28 07:01:00,
2013-11-28 02:06:00,23.7,9.1,30.15,North,0,5.4,6.9,53,0.00,,,0.00,pywws,2013-11-28 07:06:00,
2013-11-28 02:11:00,23.9,9.3,30.15,West,270,1.6,3.8,53,0.00,,,0.00,pywws,2013-11-28 07:11:00,
2013-11-28 02:16:00,23.9,9.7,30.15,West,270,2.2,3.1,54,0.00,,,0.00,pywws,2013-11-28 07:16:00,
2013-11-28 02:21:00,23.9,9.7,30.16,West,270,0.7,2.2,54,0.00,,,0.00,pywws,2013-11-28 07:21:00,
2013-11-28 02:26:00,23.9,9.7,30.16,West,270,0.0,0.0,54,0.00,,,0.00,pywws,2013-11-28 07:26:00,
2013-11-28 02:31:00,23.9,9.7,30.16,North,0,2.2,4.5,54,0.00,,,0.00,pywws,2013-11-28 07:31:00,
2013-11-28 02:36:00,24.1,9.9,30.16,SW,225,1.6,3.8,54,0.00,,,0.00,pywws,2013-11-28 07:36:00,
2013-11-28 02:41:00,24.1,10.3,30.17,West,270,0.7,1.6,55,0.00,,,0.00,pywws,2013-11-28 07:41:00,
2013-11-28 02:46:00,24.1,10.3,30.17,West,270,0.7,1.6,55,0.00,,,0.00,pywws,2013-11-28 07:46:00,
2013-11-28 02:51:00,24.1,10.7,30.17,West,270,0.7,2.2,56,0.00,,,0.00,pywws,2013-11-28 07:51:00,
2013-11-28 02:56:00,24.3,10.9,30.17,West,270,0.0,0.7,56,0.00,,,0.00,pywws,2013-11-28 07:56:00,
2013-11-28 03:01:00,24.3,10.4,30.17,NE,45,0.7,4.5,55,0.00,,,0.00,pywws,2013-11-28 08:01:00,
2013-11-28 03:06:00,24.3,10.4,30.17,NE,45,0.7,4.5,55,0.00,,,0.00,pywws,2013-11-28 08:06:00,
2013-11-28 03:11:00,24.3,10.4,30.17,SW,225,2.2,4.5,55,0.00,,,0.00,pywws,2013-11-28 08:11:00,
2013-11-28 03:16:00,24.3,10.0,30.17,North,0,0.7,1.6,54,0.00,,,0.00,pywws,2013-11-28 08:16:00,
2013-11-28 03:21:00,24.3,10.4,30.18,West,270,2.2,5.4,55,0.00,,,0.00,pywws,2013-11-28 08:21:00,
2013-11-28 03:26:00,24.3,10.4,30.18,West,270,1.6,4.5,55,0.00,,,0.00,pywws,2013-11-28 08:26:00,
2013-11-28 03:31:00,24.3,10.0,30.18,West,270,2.2,4.5,54,0.00,,,0.00,pywws,2013-11-28 08:31:00,
2013-11-28 03:36:00,24.1,9.9,30.18,West,270,3.8,5.4,54,0.00,,,0.00,pywws,2013-11-28 08:36:00,
2013-11-28 03:41:00,24.1,10.3,30.19,North,0,1.6,3.1,55,0.00,,,0.00,pywws,2013-11-28 08:41:00,
2013-11-28 03:46:00,24.1,10.3,30.19,NE,45,2.2,3.8,55,0.00,,,0.00,pywws,2013-11-28 08:46:00,
2013-11-28 03:51:00,24.1,9.9,30.19,West,270,1.6,4.5,54,0.00,,,0.00,pywws,2013-11-28 08:51:00,
2013-11-28 03:56:00,23.9,9.7,30.19,West,270,1.6,3.1,54,0.00,,,0.00,pywws,2013-11-28 08:56:00,
2013-11-28 04:01:00,23.9,10.1,30.19,South,180,1.6,4.5,55,0.00,,,0.00,pywws,2013-11-28 09:01:00,
2013-11-28 04:06:00,23.9,10.1,30.19,West,270,1.6,4.5,55,0.00,,,0.00,pywws,2013-11-28 09:06:00,
2013-11-28 04:11:00,23.9,10.5,30.19,West,270,1.6,3.1,56,0.00,,,0.00,pywws,2013-11-28 09:11:00,
2013-11-28 04:16:00,24.1,10.7,30.19,South,180,2.2,5.4,56,0.00,,,0.00,pywws,2013-11-28 09:16:00,
2013-11-28 04:21:00,23.9,10.5,30.19,South,180,3.1,7.6,56,0.00,,,0.00,pywws,2013-11-28 09:21:00,
2013-11-28 04:26:00,23.9,10.5,30.20,South,180,3.1,6.0,56,0.00,,,0.00,pywws,2013-11-28 09:26:00,
2013-11-28 04:31:00,23.9,10.5,30.20,West,270,1.6,3.1,56,0.00,,,0.00,pywws,2013-11-28 09:31:00,
2013-11-28 04:36:00,23.7,10.3,30.20,West,270,0.7,2.2,56,0.00,,,0.00,pywws,2013-11-28 09:36:00,
2013-11-28 04:41:00,23.9,10.5,30.21,West,270,1.6,3.8,56,0.00,,,0.00,pywws,2013-11-28 09:41:00,
2013-11-28 04:46:00,23.9,10.5,30.21,NW,315,0.7,3.1,56,0.00,,,0.00,pywws,2013-11-28 09:46:00,
2013-11-28 04:51:00,23.9,10.5,30.21,South,180,3.1,4.5,56,0.00,,,0.00,pywws,2013-11-28 09:51:00,
2013-11-28 04:56:00,23.9,10.9,30.22,North,0,3.1,3.8,57,0.00,,,0.00,pywws,2013-11-28 09:56:00,
2013-11-28 05:01:00,23.9,10.5,30.22,North,0,3.1,5.4,56,0.00,,,0.00,pywws,2013-11-28 10:01:00,
2013-11-28 05:06:00,23.9,10.5,30.22,North,0,3.1,5.4,56,0.00,,,0.00,pywws,2013-11-28 10:06:00,
2013-11-28 05:11:00,23.7,10.3,30.22,North,0,3.1,5.4,56,0.00,,,0.00,pywws,2013-11-28 10:11:00,
2013-11-28 05:16:00,23.7,10.3,30.22,West,270,2.2,3.1,56,0.00,,,0.00,pywws,2013-11-28 10:16:00,
2013-11-28 05:21:00,23.7,10.7,30.22,West,270,3.8,6.0,57,0.00,,,0.00,pywws,2013-11-28 10:21:00,
2013-11-28 05:26:00,23.7,10.7,30.22,West,270,0.0,2.2,57,0.00,,,0.00,pywws,2013-11-28 10:26:00,
2013-11-28 05:31:00,23.7,10.7,30.22,NW,315,0.0,1.6,57,0.00,,,0.00,pywws,2013-11-28 10:31:00,
2013-11-28 05:36:00,23.7,10.7,30.23,NW,315,1.6,3.1,57,0.00,,,0.00,pywws,2013-11-28 10:36:00,
2013-11-28 05:41:00,23.7,9.9,30.23,West,270,0.0,1.6,55,0.00,,,0.00,pywws,2013-11-28 10:41:00,
2013-11-28 05:46:00,23.7,9.9,30.23,West,270,3.1,6.9,55,0.00,,,0.00,pywws,2013-11-28 10:46:00,
2013-11-28 05:51:00,23.7,9.9,30.23,NW,315,2.2,5.4,55,0.00,,,0.00,pywws,2013-11-28 10:51:00,
2013-11-28 05:56:00,23.7,10.3,30.23,West,270,3.1,5.4,56,0.00,,,0.00,pywws,2013-11-28 10:56:00,
2013-11-28 06:01:00,23.7,10.3,30.23,West,270,0.7,2.2,56,0.00,,,0.00,pywws,2013-11-28 11:01:00,
2013-11-28 06:06:00,23.9,10.5,30.24,West,270,2.2,4.5,56,0.00,,,0.00,pywws,2013-11-28 11:06:00,
2013-11-28 06:11:00,23.7,10.3,30.24,South,180,0.0,1.6,56,0.00,,,0.00,pywws,2013-11-28 11:11:00,
2013-11-28 06:16:00,23.0,9.7,30.24,SE,135,0.7,1.6,56,0.00,,,0.00,pywws,2013-11-28 11:16:00,
2013-11-28 06:21:00,21.9,9.8,30.24,West,270,1.6,3.1,59,0.00,,,0.00,pywws,2013-11-28 11:21:00,
2013-11-28 06:26:00,21.7,10.4,30.25,SW,225,0.7,2.2,61,0.00,,,0.00,pywws,2013-11-28 11:26:00,
2013-11-28 06:31:00,21.6,10.6,30.25,South,180,1.6,3.1,62,0.00,,,0.00,pywws,2013-11-28 11:31:00,
2013-11-28 06:36:00,21.4,10.8,30.25,West,270,0.0,0.7,63,0.00,,,0.00,pywws,2013-11-28 11:36:00,
2013-11-28 06:41:00,21.2,11.0,30.25,South,180,0.7,2.2,64,0.00,,,0.00,pywws,2013-11-28 11:41:00,
2013-11-28 06:46:00,21.0,11.1,30.25,West,270,0.0,0.0,65,0.00,,,0.00,pywws,2013-11-28 11:46:00,
2013-11-28 06:51:00,21.0,11.1,30.26,South,180,0.7,1.6,65,0.00,,,0.00,pywws,2013-11-28 11:51:00,
2013-11-28 06:56:00,20.8,11.0,30.26,South,180,0.0,0.7,65,0.00,,,0.00,pywws,2013-11-28 11:56:00,
2013-11-28 07:01:00,20.8,11.0,30.26,NW,315,0.0,0.0,65,0.00,,,0.00,pywws,2013-11-28 12:01:00,
2013-11-28 07:06:00,20.8,11.0,30.26,NW,315,0.0,0.0,65,0.00,,,0.00,pywws,2013-11-28 12:06:00,
2013-11-28 07:11:00,20.8,11.0,30.26,South,180,0.7,1.6,65,0.00,,,0.00,pywws,2013-11-28 12:11:00,
2013-11-28 07:16:00,20.8,11.0,30.27,West,270,1.6,2.2,65,0.00,,,0.00,pywws,2013-11-28 12:16:00,
2013-11-28 07:21:00,21.0,11.1,30.27,West,270,3.1,3.8,65,0.00,,,0.00,pywws,2013-11-28 12:21:00,
2013-11-28 07:26:00,21.0,11.1,30.27,South,180,0.0,1.6,65,0.00,,,0.00,pywws,2013-11-28 12:26:00,
2013-11-28 07:31:00,21.2,11.0,30.27,South,180,2.2,3.8,64,0.00,,,0.00,pywws,2013-11-28 12:31:00,
2013-11-28 07:36:00,21.0,11.1,30.27,West,270,0.0,1.6,65,0.00,,,0.00,pywws,2013-11-28 12:36:00,
2013-11-28 07:41:00,21.0,11.1,30.28,South,180,0.7,2.2,65,0.00,,,0.00,pywws,2013-11-28 12:41:00,
2013-11-28 07:46:00,21.2,11.0,30.28,SE,135,0.7,2.2,64,0.00,,,0.00,pywws,2013-11-28 12:46:00,
2013-11-28 07:51:00,21.2,11.0,30.28,SW,225,0.7,2.2,64,0.00,,,0.00,pywws,2013-11-28 12:51:00,
2013-11-28 07:56:00,21.4,11.1,30.29,South,180,1.6,3.1,64,0.00,,,0.00,pywws,2013-11-28 12:56:00,
2013-11-28 08:01:00,21.4,11.1,30.29,East,90,1.6,2.2,64,0.00,,,0.00,pywws,2013-11-28 13:01:00,
2013-11-28 08:06:00,21.6,11.3,30.29,South,180,0.7,1.6,64,0.00,,,0.00,pywws,2013-11-28 13:06:00,
2013-11-28 08:11:00,21.6,11.3,30.30,SE,135,3.1,4.5,64,0.00,,,0.00,pywws,2013-11-28 13:11:00,
2013-11-28 08:16:00,21.7,11.5,30.30,West,270,1.6,3.8,64,0.00,,,0.00,pywws,2013-11-28 13:16:00,
2013-11-28 08:21:00,22.1,11.8,30.30,West,270,0.0,1.6,64,0.00,,,0.00,pywws,2013-11-28 13:21:00,
2013-11-28 08:26:00,21.9,11.6,30.30,South,180,1.6,3.8,64,0.00,,,0.00,pywws,2013-11-28 13:26:00,
2013-11-28 08:31:00,22.1,12.2,30.30,South,180,2.2,4.5,65,0.00,,,0.00,pywws,2013-11-28 13:31:00,
2013-11-28 08:36:00,22.1,12.5,30.31,South,180,1.6,3.8,66,0.00,,,0.00,pywws,2013-11-28 13:36:00,
2013-11-28 08:41:00,22.5,13.2,30.31,West,270,0.7,2.2,67,0.00,,,0.00,pywws,2013-11-28 13:41:00,
2013-11-28 08:46:00,22.6,13.7,30.32,West,270,0.0,2.2,68,0.00,,,0.00,pywws,2013-11-28 13:46:00,
2013-11-28 08:51:00,22.5,14.2,30.32,SW,225,2.2,5.4,70,0.00,,,0.00,pywws,2013-11-28 13:51:00,
2013-11-28 08:56:00,22.5,14.5,30.32,South,180,0.7,3.1,71,0.00,,,0.00,pywws,2013-11-28 13:56:00,
2013-11-28 09:01:00,22.3,14.6,30.32,West,270,2.2,5.4,72,0.00,,,0.00,pywws,2013-11-28 14:01:00,
2013-11-28 09:06:00,22.1,15.1,30.32,South,180,3.1,6.9,74,0.00,,,0.00,pywws,2013-11-28 14:06:00,
2013-11-28 09:11:00,22.3,15.6,30.32,East,90,0.7,3.1,75,0.00,,,0.00,pywws,2013-11-28 14:11:00,
2013-11-28 09:16:00,22.5,16.1,30.33,SW,225,0.7,2.2,76,0.00,,,0.00,pywws,2013-11-28 14:16:00,
2013-11-28 09:21:00,21.9,15.5,30.33,West,270,2.2,3.8,76,0.00,,,0.00,pywws,2013-11-28 14:21:00,
2013-11-28 09:26:00,21.6,15.5,30.33,South,180,2.2,3.8,77,0.00,,,0.00,pywws,2013-11-28 14:26:00,
2013-11-28 09:31:00,21.6,16.1,30.33,West,270,3.1,3.8,79,0.00,,,0.00,pywws,2013-11-28 14:31:00,
2013-11-28 09:36:00,21.6,16.4,30.33,South,180,4.5,6.9,80,0.00,,,0.00,pywws,2013-11-28 14:36:00,
2013-11-28 09:41:00,21.6,16.6,30.33,South,180,0.7,2.2,81,0.00,,,0.00,pywws,2013-11-28 14:41:00,
2013-11-28 09:46:00,21.4,16.8,30.33,South,180,1.6,3.8,82,0.00,,,0.00,pywws,2013-11-28 14:46:00,
2013-11-28 09:51:00,21.4,16.8,30.34,West,270,2.2,4.5,82,0.00,,,0.00,pywws,2013-11-28 14:51:00,
2013-11-28 09:56:00,21.4,17.3,30.33,South,180,0.7,2.2,84,0.00,,,0.00,pywws,2013-11-28 14:56:00,
2013-11-28 10:01:00,21.7,17.7,30.33,South,180,1.6,4.5,84,0.00,,,0.00,pywws,2013-11-28 15:01:00,
2013-11-28 10:06:00,21.6,17.5,30.33,SW,225,2.2,4.5,84,0.00,,,0.00,pywws,2013-11-28 15:06:00,
2013-11-28 10:11:00,21.9,17.8,30.33,North,0,1.6,4.5,84,0.00,,,0.00,pywws,2013-11-28 15:11:00,
2013-11-28 10:16:00,22.1,18.3,30.33,SE,135,3.1,4.5,85,0.00,,,0.00,pywws,2013-11-28 15:16:00,
2013-11-28 10:21:00,22.3,18.5,30.33,SE,135,0.0,1.6,85,0.00,,,0.00,pywws,2013-11-28 15:21:00,
2013-11-28 10:26:00,22.3,18.5,30.33,South,180,0.0,1.6,85,0.00,,,0.00,pywws,2013-11-28 15:26:00,
2013-11-28 10:31:00,22.1,18.3,30.33,NW,315,1.6,2.2,85,0.00,,,0.00,pywws,2013-11-28 15:31:00,
2013-11-28 10:36:00,22.8,19.0,30.33,South,180,2.2,3.8,85,0.00,,,0.00,pywws,2013-11-28 15:36:00,
2013-11-28 10:41:00,22.6,18.5,30.33,South,180,3.1,5.4,84,0.00,,,0.00,pywws,2013-11-28 15:41:00,
2013-11-28 10:46:00,22.6,18.5,30.33,South,180,4.5,6.0,84,0.00,,,0.00,pywws,2013-11-28 15:46:00,
2013-11-28 10:51:00,23.5,18.9,30.33,South,180,2.2,4.5,82,0.00,,,0.00,pywws,2013-11-28 15:51:00,
2013-11-28 10:56:00,23.0,17.8,30.33,South,180,2.2,3.8,80,0.00,,,0.00,pywws,2013-11-28 15:56:00,
2013-11-28 11:01:00,23.7,18.2,30.32,South,180,2.2,3.8,79,0.00,,,0.00,pywws,2013-11-28 16:01:00,
2013-11-28 11:06:00,23.9,17.8,30.32,South,180,3.1,5.4,77,0.00,,,0.00,pywws,2013-11-28 16:06:00,
2013-11-28 11:11:00,23.5,17.1,30.32,South,180,1.6,3.1,76,0.00,,,0.00,pywws,2013-11-28 16:11:00,
2013-11-28 11:16:00,23.9,17.2,30.32,SE,135,2.2,3.8,75,0.00,,,0.00,pywws,2013-11-28 16:16:00,
2013-11-28 11:21:00,24.6,17.2,30.32,SW,225,3.8,6.0,73,0.00,,,0.00,pywws,2013-11-28 16:21:00,
2013-11-28 11:26:00,25.2,16.8,30.32,South,180,3.1,6.9,70,0.00,,,0.00,pywws,2013-11-28 16:26:00,
2013-11-28 11:31:00,25.9,16.8,30.31,West,270,0.7,1.6,68,0.00,,,0.00,pywws,2013-11-28 16:31:00,
2013-11-28 11:36:00,25.9,16.1,30.31,South,180,1.6,3.1,66,0.00,,,0.00,pywws,2013-11-28 16:36:00,
2013-11-28 11:41:00,25.5,15.1,30.31,SW,225,3.8,5.4,64,0.00,,,0.00,pywws,2013-11-28 16:41:00,
2013-11-28 11:46:00,25.5,15.1,30.31,SW,225,3.1,4.5,64,0.00,,,0.00,pywws,2013-11-28 16:46:00,
2013-11-28 11:51:00,26.6,15.4,30.30,West,270,0.0,0.0,62,0.00,,,0.00,pywws,2013-11-28 16:51:00,
2013-11-28 11:56:00,26.2,15.0,30.31,South,180,3.1,5.4,62,0.00,,,0.00,pywws,2013-11-28 16:56:00,
2013-11-28 12:01:00,25.7,14.5,30.30,South,180,3.1,4.5,62,0.00,,,0.00,pywws,2013-11-28 17:01:00,
2013-11-28 12:06:00,25.5,14.3,30.30,South,180,2.2,5.4,62,0.00,,,0.00,pywws,2013-11-28 17:06:00,
2013-11-28 12:11:00,26.8,15.2,30.30,South,180,2.2,3.8,61,0.00,,,0.00,pywws,2013-11-28 17:11:00,
2013-11-28 12:16:00,26.6,15.0,30.30,NW,315,4.5,6.9,61,0.00,,,0.00,pywws,2013-11-28 17:16:00,
2013-11-28 12:21:00,26.6,15.0,30.29,South,180,4.5,8.3,61,0.00,,,0.00,pywws,2013-11-28 17:21:00,
2013-11-28 12:26:00,26.2,15.0,30.29,South,180,3.8,6.0,62,0.00,,,0.00,pywws,2013-11-28 17:26:00,
2013-11-28 12:31:00,27.1,15.5,30.29,West,270,2.2,3.8,61,0.00,,,0.00,pywws,2013-11-28 17:31:00,
2013-11-28 12:36:00,27.3,15.3,30.29,SE,135,2.2,3.8,60,0.00,,,0.00,pywws,2013-11-28 17:36:00,
2013-11-28 12:41:00,28.4,17.8,30.29,East,90,0.0,2.2,64,0.00,,,0.00,pywws,2013-11-28 17:41:00,
2013-11-28 12:46:00,27.0,14.2,30.28,South,180,4.5,5.4,58,0.00,,,0.00,pywws,2013-11-28 17:46:00,
2013-11-28 12:51:00,27.0,14.6,30.28,South,180,5.4,9.2,59,0.00,,,0.00,pywws,2013-11-28 17:51:00,
2013-11-28 12:56:00,27.9,15.4,30.28,South,180,6.0,9.2,59,0.00,,,0.00,pywws,2013-11-28 17:56:00,
2013-11-28 13:01:00,27.7,14.9,30.28,South,180,2.2,3.8,58,0.00,,,0.00,pywws,2013-11-28 18:01:00,
2013-11-28 13:06:00,27.3,14.1,30.27,SE,135,5.4,11.4,57,0.00,,,0.00,pywws,2013-11-28 18:06:00,
2013-11-28 13:11:00,27.9,14.6,30.27,West,270,3.1,6.0,57,0.00,,,0.00,pywws,2013-11-28 18:11:00,
2013-11-28 13:16:00,27.5,13.1,30.27,South,180,6.0,7.6,54,0.00,,,0.00,pywws,2013-11-28 18:16:00,
2013-11-28 13:21:00,28.2,13.3,30.27,NW,315,4.5,6.9,53,0.00,,,0.00,pywws,2013-11-28 18:21:00,
2013-11-28 13:26:00,28.2,12.9,30.27,South,180,4.5,9.2,52,0.00,,,0.00,pywws,2013-11-28 18:26:00,
2013-11-28 13:31:00,27.3,11.6,30.27,SE,135,5.4,6.9,51,0.00,,,0.00,pywws,2013-11-28 18:31:00,
2013-11-28 13:36:00,28.0,12.3,30.26,South,180,7.6,9.8,51,0.00,,,0.00,pywws,2013-11-28 18:36:00,
2013-11-28 13:41:00,28.2,12.9,30.26,West,270,4.5,6.9,52,0.00,,,0.00,pywws,2013-11-28 18:41:00,
2013-11-28 13:46:00,27.7,12.4,30.26,SE,135,3.1,4.5,52,0.00,,,0.00,pywws,2013-11-28 18:46:00,
2013-11-28 13:51:00,27.7,11.9,30.26,South,180,7.6,9.8,51,0.00,,,0.00,pywws,2013-11-28 18:51:00,
2013-11-28 13:56:00,27.9,11.2,30.25,South,180,3.8,5.4,49,0.00,,,0.00,pywws,2013-11-28 18:56:00,
2013-11-28 14:01:00,28.8,13.4,30.25,SE,135,3.8,6.9,52,0.00,,,0.00,pywws,2013-11-28 19:01:00,
2013-11-28 14:06:00,28.0,11.4,30.25,South,180,4.5,6.9,49,0.00,,,0.00,pywws,2013-11-28 19:06:00,
2013-11-28 14:11:00,28.2,11.5,30.25,South,180,2.2,4.5,49,0.00,,,0.00,pywws,2013-11-28 19:11:00,
2013-11-28 14:16:00,27.9,10.3,30.24,South,180,5.4,7.6,47,0.00,,,0.00,pywws,2013-11-28 19:16:00,
2013-11-28 14:21:00,28.4,13.0,30.25,SW,225,1.6,3.1,52,0.00,,,0.00,pywws,2013-11-28 19:21:00,
2013-11-28 14:26:00,28.0,10.4,30.25,SW,225,2.2,3.8,47,0.00,,,0.00,pywws,2013-11-28 19:26:00,
2013-11-28 14:31:00,28.2,10.6,30.25,SE,135,1.6,2.2,47,0.00,,,0.00,pywws,2013-11-28 19:31:00,
2013-11-28 14:36:00,27.7,10.1,30.25,East,90,3.1,6.0,47,0.00,,,0.00,pywws,2013-11-28 19:36:00,
2013-11-28 14:41:00,28.0,10.4,30.24,South,180,1.6,2.2,47,0.00,,,0.00,pywws,2013-11-28 19:41:00,
2013-11-28 14:46:00,28.0,10.9,30.25,South,180,2.2,5.4,48,0.00,,,0.00,pywws,2013-11-28 19:46:00,
2013-11-28 14:51:00,28.0,10.9,30.25,SE,135,3.8,6.0,48,0.00,,,0.00,pywws,2013-11-28 19:51:00,
2013-11-28 14:56:00,28.6,13.2,30.25,South,180,6.0,9.2,52,0.00,,,0.00,pywws,2013-11-28 19:56:00,
2013-11-28 15:01:00,28.2,11.1,30.25,South,180,7.6,10.7,48,0.00,,,0.00,pywws,2013-11-28 20:01:00,
2013-11-28 15:06:00,27.9,11.2,30.25,SE,135,7.6,10.7,49,0.00,,,0.00,pywws,2013-11-28 20:06:00,
2013-11-28 15:11:00,27.9,11.7,30.25,South,180,3.1,4.5,50,0.00,,,0.00,pywws,2013-11-28 20:11:00,
2013-11-28 15:16:00,27.9,12.1,30.25,South,180,3.8,6.9,51,0.00,,,0.00,pywws,2013-11-28 20:16:00,
2013-11-28 15:21:00,27.7,12.4,30.25,East,90,7.6,11.4,52,0.00,,,0.00,pywws,2013-11-28 20:21:00,
2013-11-28 15:26:00,27.9,13.0,30.26,South,180,3.1,4.5,53,0.00,,,0.00,pywws,2013-11-28 20:26:00,
2013-11-28 15:31:00,27.7,13.2,30.26,South,180,6.0,10.7,54,0.00,,,0.00,pywws,2013-11-28 20:31:00,
2013-11-28 15:36:00,27.7,13.6,30.26,South,180,2.2,4.5,55,0.00,,,0.00,pywws,2013-11-28 20:36:00,
2013-11-28 15:41:00,27.5,13.5,30.26,SW,225,2.2,3.8,55,0.00,,,0.00,pywws,2013-11-28 20:41:00,
2013-11-28 15:46:00,27.7,14.1,30.26,South,180,0.7,2.2,56,0.00,,,0.00,pywws,2013-11-28 20:46:00,
2013-11-28 15:51:00,27.5,14.3,30.26,South,180,4.5,6.0,57,0.00,,,0.00,pywws,2013-11-28 20:51:00,
2013-11-28 15:56:00,27.5,14.7,30.26,South,180,1.6,3.1,58,0.00,,,0.00,pywws,2013-11-28 20:56:00,
2013-11-28 16:01:00,27.5,15.1,30.26,South,180,6.9,8.3,59,0.00,,,0.00,pywws,2013-11-28 21:01:00,
2013-11-28 16:06:00,27.7,15.2,30.26,South,180,0.0,1.6,59,0.00,,,0.00,pywws,2013-11-28 21:06:00,
2013-11-28 16:11:00,27.5,15.5,30.26,SE,135,6.0,8.3,60,0.00,,,0.00,pywws,2013-11-28 21:11:00,
2013-11-28 16:16:00,27.7,15.6,30.27,South,180,2.2,4.5,60,0.00,,,0.00,pywws,2013-11-28 21:16:00,
2013-11-28 16:21:00,27.5,15.8,30.27,South,180,3.8,6.0,61,0.00,,,0.00,pywws,2013-11-28 21:21:00,
2013-11-28 16:26:00,27.5,15.8,30.27,South,180,2.2,4.5,61,0.00,,,0.00,pywws,2013-11-28 21:26:00,
2013-11-28 16:31:00,27.5,15.8,30.27,SE,135,1.6,4.5,61,0.00,,,0.00,pywws,2013-11-28 21:31:00,
2013-11-28 16:36:00,27.3,16.0,30.27,South,180,1.6,3.1,62,0.00,,,0.00,pywws,2013-11-28 21:36:00,
2013-11-28 16:41:00,27.3,16.0,30.27,South,180,6.9,9.2,62,0.00,,,0.00,pywws,2013-11-28 21:41:00,
2013-11-28 16:46:00,27.5,16.2,30.28,West,270,1.6,3.1,62,0.00,,,0.00,pywws,2013-11-28 21:46:00,
2013-11-28 16:51:00,27.5,16.2,30.28,SE,135,2.2,4.5,62,0.00,,,0.00,pywws,2013-11-28 21:51:00,
2013-11-28 16:56:00,27.3,16.0,30.28,South,180,1.6,2.2,62,0.00,,,0.00,pywws,2013-11-28 21:56:00,
2013-11-28 17:01:00,27.3,16.0,30.28,West,270,7.6,11.4,62,0.00,,,0.00,pywws,2013-11-28 22:01:00,
2013-11-28 17:06:00,27.3,16.0,30.29,SE,135,0.7,3.8,62,0.00,,,0.00,pywws,2013-11-28 22:06:00,
2013-11-28 17:11:00,27.3,16.0,30.29,South,180,7.6,9.2,62,0.00,,,0.00,pywws,2013-11-28 22:11:00,
2013-11-28 17:16:00,27.5,16.2,30.29,South,180,3.1,6.0,62,0.00,,,0.00,pywws,2013-11-28 22:16:00,
2013-11-28 17:21:00,27.3,16.0,30.29,SE,135,1.6,3.1,62,0.00,,,0.00,pywws,2013-11-28 22:21:00,
2013-11-28 17:26:00,27.3,16.0,30.29,NW,315,3.1,4.5,62,0.00,,,0.00,pywws,2013-11-28 22:26:00,
2013-11-28 17:31:00,27.5,16.2,30.29,West,270,0.7,2.2,62,0.00,,,0.00,pywws,2013-11-28 22:31:00,
2013-11-28 17:36:00,27.5,16.2,30.30,West,270,2.2,4.5,62,0.00,,,0.00,pywws,2013-11-28 22:36:00,
2013-11-28 17:41:00,27.3,16.4,30.30,South,180,3.1,8.3,63,0.00,,,0.00,pywws,2013-11-28 22:41:00,
2013-11-28 17:46:00,27.3,16.4,30.30,South,180,0.7,2.2,63,0.00,,,0.00,pywws,2013-11-28 22:46:00,
2013-11-28 17:51:00,27.3,16.4,30.31,SW,225,2.2,3.8,63,0.00,,,0.00,pywws,2013-11-28 22:51:00,
2013-11-28 17:56:00,27.5,16.6,30.31,South,180,3.1,5.4,63,0.00,,,0.00,pywws,2013-11-28 22:56:00,
2013-11-28 18:01:00,27.5,16.2,30.31,South,180,1.6,4.5,62,0.00,,,0.00,pywws,2013-11-28 23:01:00,
2013-11-28 18:06:00,27.5,16.2,30.31,SE,135,2.2,3.8,62,0.00,,,0.00,pywws,2013-11-28 23:06:00,
2013-11-28 18:11:00,27.5,16.2,30.31,SW,225,0.7,1.6,62,0.00,,,0.00,pywws,2013-11-28 23:11:00,
2013-11-28 18:16:00,27.5,16.2,30.32,SW,225,0.7,2.2,62,0.00,,,0.00,pywws,2013-11-28 23:16:00,
2013-11-28 18:21:00,27.5,15.8,30.32,SW,225,0.7,2.2,61,0.00,,,0.00,pywws,2013-11-28 23:21:00,
2013-11-28 18:26:00,27.5,15.8,30.32,South,180,0.0,0.7,61,0.00,,,0.00,pywws,2013-11-28 23:26:00,
2013-11-28 18:31:00,27.5,15.8,30.32,South,180,0.7,2.2,61,0.00,,,0.00,pywws,2013-11-28 23:31:00,
2013-11-28 18:36:00,27.5,15.8,30.32,SE,135,3.8,7.6,61,0.00,,,0.00,pywws,2013-11-28 23:36:00,
2013-11-28 18:41:00,27.5,15.5,30.32,South,180,1.6,3.1,60,0.00,,,0.00,pywws,2013-11-28 23:41:00,
2013-11-28 18:46:00,27.5,14.7,30.32,South,180,0.7,2.2,58,0.00,,,0.00,pywws,2013-11-28 23:46:00,
2013-11-28 18:51:00,27.5,14.7,30.33,West,270,0.7,1.6,58,0.00,,,0.00,pywws,2013-11-28 23:51:00,
2013-11-28 18:56:00,27.5,14.7,30.33,SW,225,0.7,2.2,58,0.00,,,0.00,pywws,2013-11-28 23:56:00,
2013-11-28 19:01:00,27.5,14.3,30.33,SW,225,2.2,3.8,57,0.00,,,0.00,pywws,2013-11-29 00:01:00,
2013-11-28 19:06:00,27.5,13.5,30.33,South,180,2.2,6.0,55,0.00,,,0.00,pywws,2013-11-29 00:06:00,
2013-11-28 19:11:00,27.5,13.5,30.33,South,180,3.1,4.5,55,0.00,,,0.00,pywws,2013-11-29 00:11:00,
2013-11-28 19:16:00,27.5,13.1,30.34,SE,135,3.8,7.6,54,0.00,,,0.00,pywws,2013-11-29 00:16:00,
2013-11-28 19:21:00,27.5,13.1,30.34,South,180,3.1,4.5,54,0.00,,,0.00,pywws,2013-11-29 00:21:00,
2013-11-28 19:27:00,27.5,13.1,30.34,South,180,1.6,3.1,54,0.00,,,0.00,pywws,2013-11-29 00:27:00,
2013-11-28 19:33:00,27.3,12.9,30.34,SE,135,1.6,3.1,54,0.00,,,0.00,pywws,2013-11-29 00:33:00,
2013-11-28 19:38:00,27.3,12.9,30.34,NW,315,1.6,2.2,54,0.00,,,0.00,pywws,2013-11-29 00:38:00,
2013-11-28 19:44:00,27.3,12.9,30.34,West,270,1.6,3.8,54,0.00,,,0.00,pywws,2013-11-29 00:44:00,
2013-11-28 19:49:00,27.3,12.9,30.34,South,180,1.6,3.1,54,0.00,,,0.00,pywws,2013-11-29 00:49:00,
2013-11-28 19:55:00,27.3,12.9,30.34,South,180,0.7,1.6,54,0.00,,,0.00,pywws,2013-11-29 00:55:00,
2013-11-28 20:01:00,27.3,12.9,30.34,West,270,3.1,5.4,54,0.00,,,0.00,pywws,2013-11-29 01:01:00,
2013-11-28 20:06:00,27.3,12.9,30.34,West,270,0.0,1.6,54,0.00,,,0.00,pywws,2013-11-29 01:06:00,
2013-11-28 20:11:00,27.3,12.9,30.34,South,180,2.2,4.5,54,0.00,,,0.00,pywws,2013-11-29 01:11:00,
2013-11-28 20:16:00,27.3,12.9,30.34,South,180,2.2,4.5,54,0.00,,,0.00,pywws,2013-11-29 01:16:00,
2013-11-28 20:21:00,27.3,12.9,30.34,South,180,2.2,4.5,54,0.00,,,0.00,pywws,2013-11-29 01:21:00,
2013-11-28 20:26:00,27.3,13.3,30.34,East,90,0.0,1.6,55,0.00,,,0.00,pywws,2013-11-29 01:26:00,
2013-11-28 20:31:00,27.1,13.1,30.34,South,180,0.0,0.7,55,0.00,,,0.00,pywws,2013-11-29 01:31:00,
2013-11-28 20:36:00,27.1,13.1,30.34,South,180,2.2,3.1,55,0.00,,,0.00,pywws,2013-11-29 01:36:00,
2013-11-28 20:41:00,27.3,12.9,30.34,South,180,1.6,2.2,54,0.00,,,0.00,pywws,2013-11-29 01:41:00,
2013-11-28 20:46:00,27.3,12.9,30.34,South,180,1.6,3.1,54,0.00,,,0.00,pywws,2013-11-29 01:46:00,
2013-11-28 20:51:00,27.3,12.9,30.34,West,270,2.2,4.5,54,0.00,,,0.00,pywws,2013-11-29 01:51:00,
2013-11-28 20:56:00,27.1,13.1,30.34,SW,225,1.6,2.2,55,0.00,,,0.00,pywws,2013-11-29 01:56:00,
2013-11-28 21:01:00,27.1,13.1,30.34,South,180,3.1,4.5,55,0.00,,,0.00,pywws,2013-11-29 02:01:00,
2013-11-28 21:06:00,27.1,13.1,30.34,South,180,3.1,4.5,55,0.00,,,0.00,pywws,2013-11-29 02:06:00,
2013-11-28 21:11:00,27.1,13.1,30.34,SW,225,0.7,3.1,55,0.00,,,0.00,pywws,2013-11-29 02:11:00,
2013-11-28 21:16:00,27.3,13.3,30.34,West,270,0.0,1.6,55,0.00,,,0.00,pywws,2013-11-29 02:16:00,
2013-11-28 21:21:00,27.3,13.3,30.34,South,180,3.8,7.6,55,0.00,,,0.00,pywws,2013-11-29 02:21:00,
2013-11-28 21:26:00,27.1,13.1,30.34,West,270,0.0,2.2,55,0.00,,,0.00,pywws,2013-11-29 02:26:00,
2013-11-28 21:31:00,27.1,13.6,30.35,West,270,0.0,0.7,56,0.00,,,0.00,pywws,2013-11-29 02:31:00,
2013-11-28 21:36:00,27.1,13.6,30.35,West,270,0.0,1.6,56,0.00,,,0.00,pywws,2013-11-29 02:36:00,
2013-11-28 21:41:00,27.1,13.6,30.35,South,180,2.2,3.1,56,0.00,,,0.00,pywws,2013-11-29 02:41:00,
2013-11-28 21:46:00,27.1,14.0,30.35,South,180,0.0,0.7,57,0.00,,,0.00,pywws,2013-11-29 02:46:00,
2013-11-28 21:51:00,27.1,13.6,30.35,SW,225,0.0,1.6,56,0.00,,,0.00,pywws,2013-11-29 02:51:00,
2013-11-28 21:56:00,27.1,13.6,30.35,South,180,0.7,1.6,56,0.00,,,0.00,pywws,2013-11-29 02:56:00,
2013-11-28 22:01:00,27.1,13.6,30.35,West,270,0.0,1.6,56,0.00,,,0.00,pywws,2013-11-29 03:01:00,
2013-11-28 22:06:00,27.1,13.6,30.35,West,270,0.7,3.1,56,0.00,,,0.00,pywws,2013-11-29 03:06:00,
2013-11-28 22:11:00,27.1,13.6,30.35,South,180,0.0,0.0,56,0.00,,,0.00,pywws,2013-11-29 03:11:00,
2013-11-28 22:16:00,27.0,13.4,30.35,SW,225,0.0,1.6,56,0.00,,,0.00,pywws,2013-11-29 03:16:00,
2013-11-28 22:21:00,27.0,13.8,30.35,South,180,0.7,3.1,57,0.00,,,0.00,pywws,2013-11-29 03:21:00,
2013-11-28 22:26:00,26.8,13.6,30.36,North,0,0.0,0.0,57,0.00,,,0.00,pywws,2013-11-29 03:26:00,
2013-11-28 22:31:00,26.8,13.6,30.36,South,180,0.7,4.5,57,0.00,,,0.00,pywws,2013-11-29 03:31:00,
2013-11-28 22:36:00,26.8,13.6,30.36,West,270,1.6,3.1,57,0.00,,,0.00,pywws,2013-11-29 03:36:00,
2013-11-28 22:41:00,26.6,13.4,30.36,South,180,0.0,0.0,57,0.00,,,0.00,pywws,2013-11-29 03:41:00,
2013-11-28 22:46:00,26.4,14.1,30.36,South,180,0.0,1.6,59,0.00,,,0.00,pywws,2013-11-29 03:46:00,
2013-11-28 22:51:00,26.1,14.1,30.36,South,180,0.7,1.6,60,0.00,,,0.00,pywws,2013-11-29 03:51:00,
2013-11-28 22:56:00,26.2,14.3,30.36,SE,135,1.6,3.1,60,0.00,,,0.00,pywws,2013-11-29 03:56:00,
2013-11-28 23:01:00,26.2,14.3,30.37,South,180,0.7,2.2,60,0.00,,,0.00,pywws,2013-11-29 04:01:00,
2013-11-28 23:06:00,26.2,14.3,30.37,South,180,0.7,2.2,60,0.00,,,0.00,pywws,2013-11-29 04:06:00,
2013-11-28 23:11:00,25.9,13.9,30.36,South,180,0.0,0.7,60,0.00,,,0.00,pywws,2013-11-29 04:11:00,
2013-11-28 23:16:00,25.9,14.3,30.37,West,270,0.0,0.0,61,0.00,,,0.00,pywws,2013-11-29 04:16:00,
2013-11-28 23:21:00,25.7,14.1,30.37,South,180,0.0,0.0,61,0.00,,,0.00,pywws,2013-11-29 04:21:00,
2013-11-28 23:26:00,25.0,13.8,30.37,South,180,0.0,0.0,62,0.00,,,0.00,pywws,2013-11-29 04:26:00,
2013-11-28 23:31:00,25.5,14.3,30.37,South,180,0.0,0.0,62,0.00,,,0.00,pywws,2013-11-29 04:31:00,
2013-11-28 23:36:00,25.5,14.3,30.37,South,180,0.0,0.0,62,0.00,,,0.00,pywws,2013-11-29 04:36:00,
2013-11-28 23:41:00,25.5,14.7,30.38,South,180,0.7,1.6,63,0.00,,,0.00,pywws,2013-11-29 04:41:00,
2013-11-28 23:46:00,25.9,15.0,30.37,South,180,0.7,1.6,63,0.00,,,0.00,pywws,2013-11-29 04:46:00,
2013-11-28 23:51:00,25.5,14.7,30.38,South,180,0.0,0.0,63,0.00,,,0.00,pywws,2013-11-29 04:51:00,
2013-11-28 23:56:00,25.5,14.7,30.38,South,180,0.0,0.0,63,0.00,,,0.00,pywws,2013-11-29 04:56:00,